Location: Haram ta Haram Freeway
(35.0583°N, 51.4202°E)
Time: 14:34:06
(UTC+04:30)

CAS-4A - Pass Details

Date: 10 July 2020
Orbit: 528 x 545 km, 43.0° (Epoch: 02 August)

Event Time Altitude Azimuth Distance (km) Brightness Sun altitude
Exits shadow 02:31:35 22° 65° (ENE) 1,218 ? -29.5°
Drops below altitude 10° 02:33:04 10° 64° (ENE) 1,788 ? -29.4°
Sets 02:35:18 0° 63° (ENE) 2,678 ? -29.2°
